Location: Berlin
(42.3812°N, 71.6370°W)
Time: 23:14:00
(UTC+00:00)

Cosmos 1484 Rocket - Pass Details

Date: 15 November 2025
Orbit: 442 x 473 km, 97.6° (Epoch: 09 December)

Event Time Altitude Azimuth Distance (km) Brightness Sun altitude
Rises 10:36:44 0° 10° (N) 2,538 6.2 -11.4°
Reaches altitude 10° 10:38:48 10° 8° (N) 1,652 5.2 -11.1°
Maximum altitude 10:42:20 72° 285° (WNW) 500 2.4 -10.4°
Drops below altitude 10° 10:45:49 10° 200° (SSW) 1,624 5.2 -9.8°
Sets 10:47:51 0° 198° (SSW) 2,489 6.2 -9.5°
